Regional Weather Roundup
Issued by NWS

Home | Current Version | Previous Version | Text Only | Print | Product List | Glossary Off
Versions: 1 2 3 4 5 6 7 8 9 10 11 12 13 14 15 16 17 18 19 20 21 22 23 24 25 26 27 28 29 30 31 32 33 34 35 36 37 38 39 40 41 42 43 44 45 46 47 48 49 50

234
ASUS45 KBOU 200707
RWRCO

WEATHER ROUNDUP FOR COLORADO
NATIONAL WEATHER SERVICE DENVER/BOULDER CO
100 AM MDT FRI OCT 20 2017

NOTE: "FAIR" INDICATES FEW OR NO CLOUDS BELOW 12000 FEET WITH NO
SIGNIFICANT WEATHER AND/OR OBSTRUCTIONS TO VISIBILITY.

COZ001>005-013-030-031-200800-
...NORTHWEST COLORADO...

CITY           SKY/WX    TMP DP  RH WIND       PRES   REMARKS
CRAIG          FAIR      40  30  67 CALM      29.94F
HAYDEN         CLOUDY    50  31  48 CALM      29.97F
MEEKER         MOCLDY    51  32  48 NE5       29.95F
RABBIT EARS PA FAIR      39  28  65 SW7       30.17S
STEAMBOAT SPGS CLOUDY    47  30  52 N3        29.98F
WALDEN         NOT AVBL
$$

COZ006>008-011-200800-
...WEST CENTRAL VALLEYS...

CITY           SKY/WX    TMP DP  RH WIND       PRES   REMARKS
GRAND JUNCTION FAIR      61  31  32 E12       29.89F
MONTROSE       FAIR      52  31  44 SE9       29.98F
EAGLE          FAIR      40  28  62 CALM      30.03F
RIFLE          FAIR      52  32  46 VRB5      29.93F
DELTA          FAIR      56  28  33 N9        29.94F
NUCLA          FAIR      57  30  35 E5        30.02F
$$

COZ017>023-064>068-200800-
...SOUTHWEST COLORADO...

CITY           SKY/WX    TMP DP  RH WIND       PRES   REMARKS
DURANGO        CLOUDY    48  31  51 NE3       30.08F
CORTEZ         MOCLDY    43  33  68 SE3       30.02F
PAGOSA SPRINGS MOCLDY    46  29  51 CALM      30.14S
TELLURIDE      MOCLDY    47  28  47 CALM      30.17F
WOLF CREEK PAS CLOUDY    32  28  86 SW12G22   30.35R WCI  23
$$

COZ009-010-012-014-032>034-037-058>063-200800-
...CENTRAL COLORADO...

CITY           SKY/WX    TMP DP  RH WIND       PRES   REMARKS
ASPEN          FAIR      39  27  62 S7        30.06F
BUENA VISTA    FAIR      44  22  41 CALM      30.07S
COPPER MTN     FAIR      39  25  56 W5        30.26F
BERTHOUD PASS  FAIR      32  23  69 NW20      30.27F WCI  20
COTTONWOOD PAS MOCLDY    54  23  30 SW9       30.15F
GUNNISON       FAIR      40  26  57 NE3       30.09F
KREMMLING      FAIR      37  28  70 CALM      30.06S
LEADVILLE      FAIR      30  18  60 E3        30.14F
MONARCH PASS   FAIR      34  21  60 W22       30.36F WCI  22
SALIDA         FAIR      48  19  32 CALM      30.12S
SUNLIGHT       MOCLDY    36  27  69 SW12G21   30.21F
WILKERSON PASS FAIR      39  12  33 W9        30.24S
$$

COZ069>075-200800-
...SAN LUIS VALLEY/SANGRE DE CRISTO MOUNTAINS...

CITY           SKY/WX    TMP DP  RH WIND       PRES   REMARKS
ALAMOSA        FAIR      39  29  67 NE3       30.06F
DEL NORTE      FAIR      49  28  43 W16       30.09F
LA VETA PASS   FAIR      41  28  60 S21G35    30.28F
SAGUACHE       MOCLDY    45  19  36 NW8       30.08F
$$

COZ035-036-038>040-200800-
...NORTHERN COLORADO FRONT RANGE...

CITY           SKY/WX    TMP DP  RH WIND       PRES   REMARKS
DENVER INTL AP FAIR      51  31  46 SW8       29.85F
DMNS CITY PARK   N/A     50  29  44 SW2       29.85F
AURORA         PTCLDY    51  31  46 S10       29.86F
FRONT RANGE AP FAIR      54  34  47 SW8       29.86F
ERIE MUNI ARPT FAIR      41  33  73 CALM      29.90F
BOULDER MUN AP FAIR      50  32  50 CALM      29.84F
CENTENNIAL     FAIR      49  28  44 CALM      29.88F
BROOMFIELD     FAIR      55  27  33 CALM      29.86F
FORT COLLINS   FAIR      48  35  60 W3        29.85F
LONGMONT       FAIR      45  32  61 CALM      29.86F
$$

COZ041-046-047-076>085-087-088-200800-
...PIKES PEAK/PALMER DIVIDE AND SOUTHERN FOOTHILLS...

CITY           SKY/WX    TMP DP  RH WIND       PRES   REMARKS
COLO. SPRINGS  MOCLDY    44  33  65 NE8       29.93F
A. F. ACADEMY  FAIR      40  30  68 N8        29.92F
SCHRIEVER AFB  FAIR      47  33  56 N7        29.93F
CHEYENNE MTN   FAIR      53  27  36 CALM      29.90F
ELLICOTT       FAIR     N/A N/A N/A E3        29.91F
FALCON         FAIR      42  31  65 NW6       29.96F
FORT CARSON    FAIR      46  29  52 NW6       29.89F
LIMON          FAIR      35  35 100 CALM      29.90F
MONUMENT HILL  FAIR      45  32  61 SW7       29.97F
CANON CITY     FAIR      57  30  35 W16       29.87F
WALSENBURG     FAIR      61  30  31 W16       29.93F
TRINIDAD       FAIR      55  38  52 N3        29.92F
$$

COZ042>045-048>051-090-091-200800-
...NORTHEAST COLORADO...

CITY           SKY/WX    TMP DP  RH WIND       PRES   REMARKS
GREELEY ARPT   FAIR      39  32  76 NW8       29.83F
AKRON          FAIR      50  42  74 S9        29.83F
BURLINGTON     FAIR      53  46  77 S16       29.87F
WRAY           NOT AVBL
YUMA           FAIR      45  41  87 S6        29.83F
STERLING       FAIR      43  36  75 CALM      29.81S
HOLYOKE        FAIR      46  43  87 SE5       29.83F
FORT MORGAN    FAIR      48  33  55 S3        29.83F
$$

COZ086-089-092>099-200800-
...SOUTHEAST COLORADO...

CITY           SKY/WX    TMP DP  RH WIND       PRES   REMARKS
PUEBLO         FAIR      50  34  54 CALM      29.85F
LA JUNTA       FAIR      57  41  55 S6        29.85F
LAMAR          FAIR      65  45  48 S21G30    29.83F
SPRINGFIELD    NOT AVBL
$$




USA.gov is the U.S. government's official web portal to all federal, state and local government web resources and services.